MAUNA LOA HI US current weather conditions

sailwx.info

Wind from 294 at 2 knots gusting 3

Air temperature 8.3° C
Dewpoint 8.3° C

Last reported at 2018-Feb-20 10:34 UTC.
Time now 2018-Feb-20 11:55 UTC

Location: N 19°28' W 155°22'.
View on Google Maps.

See reports from other nearby stations

  
Tides and Currents Weather Stations Pressure Air Temp Water Temp Dewpoint Dewpoint Depression Visibility Wind Speed Wind Dir Waves Ship Positions
date/time (UTC)wind fromknots sea level pressurealtimeterstation pressurevisibilityair tempwater tempwave heightnotes
2018-Feb-20 10:34 294 2 gusting 3 8.3
2018-Feb-20 09:34 265 0 gusting 5 8.3
2018-Feb-20 08:34 280 2 gusting 5 8.9
2018-Feb-20 07:34 329 3 gusting 6 9.4
2018-Feb-20 06:34 276 2 gusting 6 10.6
2018-Feb-20 05:34 270 1 gusting 6 9.4
2018-Feb-20 04:34 008 1 gusting 6 11.7
2018-Feb-20 03:34 184 2 gusting 5 13.3
2018-Feb-20 02:34 113 0 gusting 6 13.3
2018-Feb-20 01:34 139 3 gusting 6 14.4
2018-Feb-20 00:34 158 4 gusting 11 14.4
2018-Feb-19 23:34 139 6 gusting 12 18.3
2018-Feb-19 22:34 171 2 gusting 10 20.0
2018-Feb-19 21:34 134 4 gusting 10 17.2
2018-Feb-19 20:34 143 3 gusting 9 18.3
2018-Feb-19 19:34 136 2 gusting 7 15.6
2018-Feb-19 18:34 156 3 gusting 6 15.0
2018-Feb-19 17:34 351 4 gusting 8 10.6
2018-Feb-19 16:34 252 2 gusting 5 7.8
2018-Feb-19 15:34 326 2 gusting 6 8.3
2018-Feb-19 14:34 273 2 gusting 6 7.2
2018-Feb-19 13:34 273 2 gusting 6 7.2
2018-Feb-19 12:34 268 3 gusting 6 8.9
2018-Feb-19 11:34 223 2 gusting 6 8.3
2018-Feb-19 10:34 208 2 gusting 14 9.4
2018-Feb-19 09:34 198 4 gusting 13 10.6
2018-Feb-19 08:34 221 5 gusting 14 9.4
2018-Feb-19 07:34 233 8 gusting 15 9.4
2018-Feb-19 06:34 237 6 gusting 11 9.4
2018-Feb-19 05:34 289 3 gusting 5 10.0
2018-Feb-19 04:34 192 2 gusting 6 10.6
2018-Feb-19 03:34 078 1 gusting 8 12.2
2018-Feb-19 02:34 077 2 gusting 13 11.7
2018-Feb-19 01:34 005 7 gusting 16 13.3
2018-Feb-19 00:34 294 4 gusting 11 12.2
2018-Feb-18 23:34 038 2 gusting 17 10.6
2018-Feb-18 22:34 148 5 gusting 9 15.6
2018-Feb-18 21:34 150 5 gusting 9 16.1
2018-Feb-18 20:34 186 3 gusting 6 17.2
2018-Feb-18 19:34 146 3 gusting 6 14.4
2018-Feb-18 18:34 293 0 gusting 3 11.7
2018-Feb-18 17:34 261 3 gusting 7 8.3
2018-Feb-18 16:34 290 3 gusting 6 6.7
2018-Feb-18 15:34 292 2 gusting 6 7.2
2018-Feb-18 14:34 293 4 gusting 7 7.8
2018-Feb-18 13:34 282 3 gusting 6 7.2
2018-Feb-18 12:34 288 4 gusting 6 7.2
2018-Feb-18 11:34 284 5 gusting 7 8.3